Location: Launois
(49.6535°N, 4.5395°E)
Time: 12:16:29
(UTC+00:00)

Cosmos 1953 - Pass Details

Date: 23 May 2024
Orbit: 510 x 531 km, 82.5° (Epoch: 14 June)

Event Time Altitude Azimuth Distance (km) Brightness Sun altitude
Rises 00:57:38 0° 350° (N) 2,687 6.9 -17.5°
Reaches altitude 10° 00:59:48 10° 351° (N) 1,789 5.9 -17.4°
Maximum altitude 01:03:45 84° 81° (E) 538 2.2 -17.2°
Enters shadow 01:05:26 33° 166° (SSE) 907 3.0 -17.1°
